Retour au catalogue

STARLINK-4129

ActifCommunicationsVLEO
NORAD 53251·PAYLOAD·🇺🇸 United States

Lancé Jul 24, 2022 depuis Cape Canaveral Space Force Station

Loading…

Prochains Passages (prochaines 24 heures)

TLE

FraisSource: CelesTrak SupGP

Époque: Sep 15, 2026, 02:21 UTC

1 53251C 22086K   26258.09840278 -.00029333  00000+0 -86683-3 0  2588
2 53251  53.1611  50.6243 0001161  83.2049 346.5025 15.34398871    15

Suivez STARLINK-4129 en temps réel avec AllMySat

Download on the App Store